CW5749 Weather Reports


Display with metric or nautical units.
time (UTC)temp
F
wind
direction
speed
MPH
gust
MPH
rain 1hr
in
rain 24hr
in
rain mn
in
humidity
%
barometer
mb
20260906153030 73 112 2.0 6.0 0.00 0.00 0.00 86 1019.1
20260906152801 73 110 2.0 5.0 0.00 0.00 0.00 87 1019.1
20260906152030 72 92 1.0 5.0 0.00 0.00 0.00 87 1019.1
20260906151531 72 88 2.0 5.0 0.00 0.00 0.00 88 1019.1
20260906151031 72 109 2.0 5.0 0.00 0.00 0.00 88 1019.1
20260906150531 72 103 1.0 5.0 0.00 0.00 0.00 88 1019.1
20260906145530 71 114 1.0 4.0 0.00 0.00 0.00 89 1019.1
20260906145031 71 88 1.0 4.0 0.00 0.00 0.00 89 1019.1
20260906144530 71 91 2.0 5.0 0.00 0.00 0.00 89 1019.1
20260906144249 71 106 1.0 5.0 0.00 0.00 0.00 89 1019.0
20260906143530 71 171 1.0 7.0 0.00 0.00 0.00 90 1018.9
20260906143030 70 88 2.0 7.0 0.00 0.00 0.00 90 1018.9
20260906142532 70 71 1.0 4.0 0.00 0.00 0.00 90 1018.8
20260906142029 70 302 2.0 6.0 0.00 0.00 0.00 90 1018.8
20260906141527 70 94 2.0 6.0 0.00 0.00 0.00 90 1018.8
20260906141027 70 88 2.0 5.0 0.00 0.00 0.00 90 1018.7
20260906140527 70 57 2.0 5.0 0.00 0.00 0.00 90 1018.6
20260906135530 70 128 2.0 6.0 0.00 0.00 0.00 90 1018.7
20260906135030 70 100 2.0 6.0 0.00 0.00 0.00 90 1018.6
20260906134523 70 54 2.0 7.0 0.00 0.00 0.00 90 1018.7
20260906134024 70 169 3.0 10.0 0.00 0.00 0.00 91 1018.7
20260906133748 70 45 4.0 10.0 0.00 0.00 0.00 90 1018.6
20260906133021 69 22 3.0 10.0 0.00 0.00 0.00 91 1018.6
20260906132521 69 75 3.0 10.0 0.00 0.00 0.00 91 1018.6
20260906132024 69 107 2.0 6.0 0.00 0.00 0.00 91 1018.5
20260906131521 69 56 2.0 7.0 0.00 0.00 0.00 91 1018.5
20260906131022 69 72 3.0 7.0 0.00 0.00 0.00 91 1018.4
20260906130522 69 58 3.0 7.0 0.00 0.00 0.00 92 1018.3
20260906130021 69 58 3.0 9.0 0.00 0.00 0.00 92 1018.2
20260906125517 69 63 3.0 9.0 0.00 0.00 0.00 92 1018.1
20260906125017 69 72 2.0 6.0 0.00 0.00 0.00 92 1018.1
20260906124518 69 50 2.0 5.0 0.00 0.00 0.00 92 1018.0
20260906124017 69 85 2.0 5.0 0.00 0.00 0.00 92 1017.9
20260906123521 69 53 2.0 5.0 0.00 0.00 0.00 93 1018.0
20260906123017 69 67 2.0 5.0 0.00 0.00 0.00 93 1018.0
20260906122017 68 69 1.0 2.0 0.00 0.00 0.00 93 1017.9
20260906121518 68 46 1.0 3.0 0.00 0.00 0.00 93 1017.9
20260906121016 68 93 1.0 4.0 0.00 0.00 0.00 93 1017.9
20260906120515 69 49 2.0 5.0 0.00 0.00 0.00 93 1017.9
20260906120015 69 43 2.0 6.0 0.00 0.00 0.00 93 1017.9
20260906115515 69 46 2.0 6.0 0.00 0.00 0.00 93 1017.8
20260906115016 69 86 2.0 4.0 0.00 0.00 0.00 93 1017.8
20260906114515 69 55 2.0 4.0 0.00 0.00 0.00 93 1017.8
20260906114015 69 49 2.0 4.0 0.00 0.00 0.00 92 1017.8
20260906113738 69 75 2.0 5.0 0.00 0.00 0.00 92 1017.8
20260906113016 69 56 1.0 5.0 0.00 0.00 0.00 92 1017.9
20260906112510 69 356 0.0 2.0 0.00 0.00 0.00 92 1017.9
20260906112011 69 20 1.0 3.0 0.00 0.00 0.00 92 1017.8
20260906111512 69 38 1.0 4.0 0.00 0.00 0.00 92 1017.6
20260906111011 69 54 1.0 4.0 0.00 0.00 0.00 92 1017.5
20260906110511 69 31 1.0 3.0 0.00 0.00 0.00 92 1017.4
20260906110011 69 65 1.0 3.0 0.00 0.00 0.00 92 1017.4
20260906105510 69 60 1.0 2.0 0.00 0.00 0.00 92 1017.3
20260906105233 69 54 1.0 3.0 0.00 0.00 0.00 92 1017.3
20260906104514 69 72 1.0 3.0 0.00 0.00 0.00 92 1017.3
20260906104232 69 72 2.0 3.0 0.00 0.00 0.00 92 1017.3
20260906103507 69 65 2.0 5.0 0.00 0.00 0.00 92 1017.2
20260906103010 69 62 1.0 5.0 0.00 0.00 0.00 92 1017.1
20260906102507 69 62 2.0 4.0 0.00 0.00 0.00 92 1017.2
20260906102007 69 64 1.0 4.0 0.00 0.00 0.00 92 1017.1
20260906101507 69 81 1.0 4.0 0.00 0.00 0.00 92 1017.0
20260906101008 69 66 1.0 4.0 0.00 0.00 0.00 92 1017.0
20260906100510 69 57 1.0 3.0 0.00 0.00 0.00 92 1017.0
20260906100007 69 100 1.0 3.0 0.00 0.00 0.00 92 1016.9
20260906095507 69 77 1.0 4.0 0.00 0.00 0.00 92 1016.7
20260906095007 69 69 2.0 6.0 0.00 0.00 0.00 92 1016.6
20260906094507 70 57 1.0 6.0 0.00 0.00 0.00 92 1016.6
20260906094230 70 64 1.0 3.0 0.00 0.00 0.00 92 1016.4
20260906093507 70 72 1.0 4.0 0.00 0.00 0.00 92 1016.4
20260906093007 70 57 1.0 4.0 0.00 0.00 0.00 92 1016.3
20260906092506 70 114 2.0 6.0 0.00 0.00 0.00 92 1016.2
20260906092006 70 114 2.0 6.0 0.00 0.00 0.00 92 1016.2
20260906091505 70 107 2.0 6.0 0.00 0.00 0.00 92 1016.2
20260906091012 71 142 2.0 5.0 0.00 0.00 0.00 91 1016.2
20260906090510 71 55 2.0 6.0 0.00 0.00 0.00 91 1016.3
20260906090010 71 87 2.0 6.0 0.00 0.00 0.00 91 1016.3
20260906085508 71 56 3.0 6.0 0.00 0.00 0.00 91 1016.3
20260906085229 71 57 3.0 6.0 0.00 0.00 0.00 91 1016.4
20260906083953 71 59 2.0 6.0 0.00 0.00 0.00 91 1016.4
20260906083712 71 40 2.0 7.0 0.00 0.00 0.00 91 1016.4
20260906082941 71 56 2.0 7.0 0.00 0.00 0.00 91 1016.4
20260906082438 71 81 2.0 5.0 0.00 0.00 0.00 91 1016.3
20260906081939 72 57 2.0 6.0 0.00 0.00 0.00 90 1016.3
20260906081437 72 55 3.0 6.0 0.00 0.00 0.00 90 1016.4
20260906080937 72 76 2.0 6.0 0.00 0.00 0.00 90 1016.3
20260906080437 72 53 2.0 5.0 0.00 0.00 0.00 90 1016.2
20260906075937 72 41 3.0 7.0 0.00 0.00 0.00 90 1016.3
20260906075437 72 60 3.0 7.0 0.00 0.00 0.00 90 1016.4
20260906074937 72 101 3.0 6.0 0.00 0.00 0.00 90 1016.5
20260906074701 72 72 2.0 6.0 0.00 0.00 0.00 90 1016.5
20260906073933 72 92 2.0 8.0 0.00 0.00 0.00 90 1016.5
20260906073436 73 21 2.0 8.0 0.00 0.00 0.00 90 1016.4
20260906072933 73 119 2.0 6.0 0.00 0.00 0.00 89 1016.4
20260906072433 73 75 2.0 6.0 0.00 0.00 0.00 89 1016.5
20260906071931 73 69 3.0 7.0 0.00 0.00 0.00 89 1016.5
20260906071430 73 89 2.0 7.0 0.00 0.00 0.00 89 1016.5
20260906070930 73 31 2.0 4.0 0.00 0.00 0.00 89 1016.6
20260906070431 73 91 3.0 6.0 0.00 0.00 0.00 89 1016.6
20260906065930 73 60 2.0 6.0 0.00 0.00 0.00 89 1016.7
20260906065434 73 57 2.0 6.0 0.00 0.00 0.00 89 1016.7
20260906064931 73 65 2.0 6.0 0.00 0.00 0.00 88 1016.8
20260906064434 73 48 2.0 6.0 0.00 0.00 0.00 88 1016.7
20260906063930 73 70 1.0 5.0 0.00 0.00 0.00 88 1016.7
20260906063432 73 74 1.0 4.0 0.00 0.00 0.00 88 1016.6
20260906062932 73 41 2.0 5.0 0.00 0.00 0.00 88 1016.7
20260906062430 73 45 2.0 5.0 0.00 0.00 0.00 88 1016.7
20260906061651 73 15 2.0 4.0 0.00 0.00 0.00 88 1016.8
20260906060931 74 60 2.0 5.0 0.00 0.00 0.00 88 1016.8
20260906060430 74 29 2.0 6.0 0.00 0.00 0.00 88 1016.8
20260906055931 74 39 2.0 6.0 0.00 0.00 0.00 88 1016.7
20260906055656 74 48 2.0 6.0 0.00 0.00 0.00 87 1016.7
20260906054932 74 48 2.0 4.0 0.00 0.00 0.00 87 1016.9
20260906054154 74 106 2.0 5.0 0.00 0.00 0.00 87 1016.7
20260906053430 74 25 2.0 5.0 0.00 0.00 0.00 87 1016.6
20260906052931 74 50 2.0 5.0 0.00 0.00 0.00 87 1016.5
20260906052653 74 50 2.0 5.0 0.00 0.00 0.00 87 1016.5
20260906051930 74 33 2.0 5.0 0.00 0.00 0.00 86 1016.6
20260906051431 74 33 2.0 6.0 0.00 0.00 0.00 86 1016.5
20260906050934 74 63 2.0 6.0 0.00 0.00 0.00 86 1016.6
20260906050431 74 67 1.0 4.0 0.00 0.00 0.00 86 1016.6
20260906045931 74 29 1.0 4.0 0.00 0.00 0.00 86 1016.5
20260906045657 74 39 1.0 4.0 0.00 0.00 0.00 86 1016.3
20260906044931 74 85 2.0 4.0 0.00 0.00 0.00 86 1016.2
20260906044430 74 55 2.0 5.0 0.00 0.00 0.00 86 1016.2
20260906043932 74 35 2.0 5.0 0.00 0.00 0.00 86 1016.2
20260906043432 74 73 2.0 4.0 0.00 0.00 0.00 86 1016.2
20260906042932 74 73 2.0 5.0 0.00 0.00 0.00 87 1016.2
20260906042432 74 20 1.0 5.0 0.00 0.00 0.00 87 1016.2
20260906041417 75 39 1.0 4.0 0.00 0.00 0.00 86 1016.2
20260906040642 75 49 2.0 4.0 0.00 0.00 0.00 85 1016.2
20260906035410 75 4 2.0 4.0 0.00 0.00 0.00 85 1016.2
20260906035131 75 27 2.0 4.0 0.00 0.00 0.00 85 1016.2
20260906034408 75 62 2.0 3.0 0.00 0.00 0.00 85 1016.0
20260906033905 75 19 1.0 3.0 0.00 0.00 0.00 85 1015.9
20260906033627 75 358 1.0 5.0 0.00 0.00 0.00 85 1015.9
20260906032905 75 64 2.0 5.0 0.00 0.00 0.00 85 1016.0
20260906032403 75 82 1.0 3.0 0.00 0.00 0.00 85 1015.9
20260906031903 76 38 1.0 5.0 0.00 0.00 0.00 85 1015.8
20260906031630 76 74 1.0 5.0 0.00 0.00 0.00 85 1015.7
20260906030902 76 356 1.0 3.0 0.00 0.00 0.00 85 1015.7
20260906030403 76 64 1.0 3.0 0.00 0.00 0.00 85 1015.7
20260906025903 76 63 1.0 4.0 0.00 0.00 0.00 85 1015.7
20260906025403 76 76 2.0 5.0 0.00 0.00 0.00 85 1015.7
20260906024903 76 47 3.0 6.0 0.00 0.00 0.00 85 1015.5
20260906024403 76 62 2.0 6.0 0.00 0.00 0.00 85 1015.6
20260906023903 76 62 2.0 5.0 0.00 0.00 0.00 85 1015.5
20260906023625 76 74 2.0 5.0 0.00 0.00 0.00 85 1015.5
20260906022854 76 89 2.0 4.0 0.00 0.00 0.00 84 1015.4
20260906022354 76 341 2.0 7.0 0.00 0.00 0.00 85 1015.4
20260906021853 76 53 1.0 7.0 0.00 0.00 0.00 85 1015.3
20260906021351 77 57 2.0 7.0 0.00 0.00 0.00 84 1015.2
20260906021119 77 55 2.0 8.0 0.00 0.00 0.00 84 1015.1
20260906020352 77 54 2.0 8.0 0.00 0.00 0.00 84 1015.0
20260906015850 77 15 2.0 7.0 0.00 0.00 0.00 84 1014.8
20260906014850 77 77 2.0 5.0 0.00 0.00 0.00 83 1014.7
20260906014350 77 30 2.0 5.0 0.00 0.00 0.00 83 1014.7
20260906013847 78 54 2.0 5.0 0.00 0.00 0.00 83 1014.5
20260906013348 78 342 2.0 5.0 0.00 0.00 0.00 83 1014.5
20260906013109 78 48 2.0 4.0 0.00 0.00 0.00 82 1014.5
20260906012348 78 38 2.0 5.0 0.00 0.00 0.00 82 1014.4
20260906011846 78 43 2.0 5.0 0.00 0.00 0.00 82 1014.4
20260906011347 78 351 1.0 4.0 0.00 0.00 0.00 82 1014.4
20260906010841 78 54 1.0 4.0 0.00 0.00 0.00 81 1014.4
20260906010341 79 74 2.0 4.0 0.00 0.00 0.00 81 1014.4
20260906005340 79 29 1.0 4.0 0.00 0.00 0.00 81 1014.2
20260906004839 79 77 1.0 5.0 0.00 0.00 0.00 81 1014.2
20260906004339 79 43 2.0 5.0 0.00 0.00 0.00 81 1014.2
20260906003838 79 55 1.0 6.0 0.00 0.00 0.00 80 1014.2
20260906003339 80 349 2.0 6.0 0.00 0.00 0.00 80 1014.2
20260906002838 80 96 2.0 5.0 0.00 0.00 0.00 80 1014.1
20260906002606 80 90 2.0 4.0 0.00 0.00 0.00 79 1014.2
20260906001836 80 60 2.0 7.0 0.00 0.00 0.00 79 1014.2
20260906001335 80 44 2.0 7.0 0.00 0.00 0.00 78 1014.2
20260906000833 81 32 2.0 7.0 0.00 0.00 0.00 78 1014.2
20260906000334 81 46 3.0 7.0 0.00 0.00 0.00 77 1014.1
20260905235836 81 103 3.0 10.0 0.00 0.00 0.00 78 1014.2
20260905235557 82 64 5.0 11.0 0.00 0.00 0.00 77 1014.1
20260905234832 82 49 5.0 11.0 0.00 0.00 0.00 78 1014.1
20260905234331 83 44 5.0 11.0 0.00 0.00 0.00 78 1014.1
20260905233830 83 305 4.0 11.0 0.00 0.00 0.00 78 1014.1
20260905233331 84 45 5.0 11.0 0.00 0.00 0.00 77 1014.0
20260905232835 84 34 5.0 11.0 0.00 0.00 0.00 76 1014.0
20260905232553 85 70 5.0 12.0 0.00 0.00 0.00 75 1014.0
20260905231821 85 351 5.0 12.0 0.00 0.00 0.00 75 1013.9
20260905231316 86 60 4.0 10.0 0.00 0.00 0.00 74 1013.8
20260905231043 86 57 4.0 8.0 0.00 0.00 0.00 74 1013.7
20260905230302 87 54 4.0 13.0 0.00 0.00 0.00 75 1013.7
20260905225801 87 12 5.0 13.0 0.00 0.00 0.00 73 1013.7
20260905225518 87 43 6.0 14.0 0.00 0.00 0.00 74 1013.6
20260905224745 87 92 6.0 14.0 0.00 0.00 0.00 73 1013.5
20260905224243 88 67 5.0 12.0 0.00 0.00 0.00 72 1013.5
20260905224006 89 54 5.0 12.0 0.00 0.00 0.00 71 1013.5
20260905223237 90 54 5.0 12.0 0.00 0.00 0.00 69 1013.3
20260905222736 91 50 4.0 11.0 0.00 0.00 0.00 67 1013.2
20260905222502 91 20 4.0 9.0 0.00 0.00 0.00 66 1013.2
20260905222009 91 5 4.0 9.0 0.00 0.00 0.00 67 1013.3
20260905221236 91 84 4.0 10.0 0.00 0.00 0.00 64 1013.3
20260905221000 91 66 5.0 10.0 0.00 0.00 0.00 65 1013.2
20260905220231 91 27 4.0 10.0 0.00 0.00 0.00 64 1013.3
20260905215731 91 294 3.0 9.0 0.00 0.00 0.00 65 1013.3
20260905215232 91 108 4.0 7.0 0.00 0.00 0.00 63 1013.3
20260905214952 91 43 3.0 7.0 0.00 0.00 0.00 63 1013.5
20260905214232 91 343 3.0 7.0 0.00 0.00 0.00 65 1013.5
20260905213731 91 5 4.0 11.0 0.00 0.00 0.00 65 1013.4
20260905213230 92 353 3.0 11.0 0.00 0.00 0.00 64 1013.4
20260905212731 92 259 3.0 6.0 0.00 0.00 0.00 62 1013.4
20260905212231 92 17 4.0 10.0 0.00 0.00 0.00 60 1013.4
20260905211731 91 9 4.0 10.0 0.00 0.00 0.00 61 1013.4
20260905211230 92 356 3.0 9.0 0.00 0.00 0.00 63 1013.4
20260905210731 92 83 3.0 6.0 0.00 0.00 0.00 63 1013.4
20260905210230 92 320 3.0 6.0 0.00 0.00 0.00 61 1013.5
20260905205230 92 241 3.0 8.0 0.00 0.00 0.00 66 1013.5
20260905204729 91 36 4.0 8.0 0.00 0.00 0.00 65 1013.5
20260905204230 91 82 4.0 10.0 0.00 0.00 0.00 65 1013.6
20260905203957 91 332 3.0 10.0 0.00 0.00 0.00 65 1013.6
20260905202728 91 54 3.0 8.0 0.00 0.00 0.00 67 1013.6
20260905202225 90 69 3.0 8.0 0.00 0.00 0.00 67 1013.7
20260905201727 91 56 3.0 7.0 0.00 0.00 0.00 66 1013.6
20260905201225 92 17 3.0 8.0 0.00 0.00 0.00 66 1013.7
20260905200725 91 43 3.0 9.0 0.00 0.00 0.00 66 1013.7
20260905195725 91 50 4.0 7.0 0.00 0.00 0.00 67 1013.9
20260905195226 91 85 3.0 7.0 0.00 0.00 0.00 67 1014.0
20260905194720 91 23 3.0 8.0 0.00 0.00 0.00 66 1014.1
20260905194220 91 101 3.0 8.0 0.00 0.00 0.00 67 1014.1
20260905193722 91 74 2.0 8.0 0.00 0.00 0.00 66 1014.1
20260905193219 91 307 2.0 5.0 0.00 0.00 0.00 67 1014.2
20260905192722 91 20 2.0 5.0 0.00 0.00 0.00 67 1014.2
20260905192446 90 334 2.0 5.0 0.00 0.00 0.00 69 1014.1
20260905191957 90 320 2.0 6.0 0.00 0.00 0.00 69 1014.1
20260905191219 90 304 2.0 6.0 0.00 0.00 0.00 69 1014.1
20260905190717 90 98 3.0 6.0 0.00 0.00 0.00 68 1014.1
20260905190215 90 83 3.0 6.0 0.00 0.00 0.00 70 1014.2
20260905185715 90 61 2.0 5.0 0.00 0.00 0.00 68 1014.4
20260905185216 89 57 2.0 5.0 0.00 0.00 0.00 70 1014.5
20260905184713 89 127 2.0 5.0 0.00 0.00 0.00 69 1014.7
20260905184213 89 332 2.0 8.0 0.00 0.00 0.00 69 1014.5
20260905183714 89 46 2.0 8.0 0.00 0.00 0.00 69 1014.5
20260905183214 89 64 2.0 7.0 0.00 0.00 0.00 69 1014.7
20260905182211 89 19 3.0 8.0 0.00 0.00 0.00 68 1014.8
20260905181711 89 339 2.0 6.0 0.00 0.00 0.00 68 1014.7
20260905181209 89 344 3.0 6.0 0.00 0.00 0.00 70 1014.7
20260905180709 89 303 2.0 6.0 0.00 0.00 0.00 69 1014.7
20260905180210 89 63 2.0 6.0 0.00 0.00 0.00 70 1014.5
20260905175939 89 69 2.0 5.0 0.00 0.00 0.00 70 1014.7
20260905175209 89 13 3.0 8.0 0.00 0.00 0.00 70 1014.5
20260905174711 88 43 3.0 8.0 0.00 0.00 0.00 72 1014.5
20260905174210 88 88 4.0 8.0 0.00 0.00 0.00 70 1014.5
20260905173709 88 76 3.0 8.0 0.00 0.00 0.00 71 1014.5
20260905173212 89 72 3.0 8.0 0.00 0.00 0.00 70 1014.5
20260905172713 88 59 3.0 8.0 0.00 0.00 0.00 72 1014.7
20260905172209 88 107 4.0 8.0 0.00 0.00 0.00 70 1014.7
20260905171717 88 326 3.0 8.0 0.00 0.00 0.00 71 1014.8
20260905171212 88 53 3.0 8.0 0.00 0.00 0.00 71 1014.9
20260905170712 88 48 3.0 8.0 0.00 0.00 0.00 73 1014.8
20260905170212 88 114 4.0 8.0 0.00 0.00 0.00 72 1014.8
20260905165929 88 344 3.0 8.0 0.00 0.00 0.00 73 1014.9
20260905165207 88 61 2.0 6.0 0.00 0.00 0.00 72 1014.9
20260905164707 89 57 2.0 5.0 0.00 0.00 0.00 72 1014.9
20260905164205 89 45 2.0 5.0 0.00 0.00 0.00 72 1015.0
20260905163929 88 353 2.0 5.0 0.00 0.00 0.00 73 1015.1
20260905163203 88 67 3.0 6.0 0.00 0.00 0.00 75 1015.0
20260905162703 88 102 3.0 6.0 0.00 0.00 0.00 74 1015.1
20260905162204 87 339 3.0 7.0 0.00 0.00 0.00 74 1015.0
20260905161704 87 40 3.0 8.0 0.00 0.00 0.00 74 1014.9
20260905161204 87 36 3.0 8.0 0.00 0.00 0.00 75 1014.9
20260905160702 87 105 2.0 7.0 0.00 0.00 0.00 76 1014.9
20260905160206 87 21 3.0 8.0 0.00 0.00 0.00 76 1014.9
20260905155703 87 334 3.0 8.0 0.00 0.00 0.00 78 1014.9
20260905155204 86 20 4.0 8.0 0.00 0.00 0.00 76 1014.8
20260905154705 86 49 3.0 8.0 0.00 0.00 0.00 76 1014.8
20260905154204 86 62 3.0 7.0 0.00 0.00 0.00 76 1014.7
20260905153702 86 83 3.0 5.0 0.00 0.00 0.00 77 1014.4
20260905153206 86 47 3.0 5.0 0.00 0.00 0.00 77 1014.5